N709LP KPWM-KBHM

Flight info

Callsign N709LP
Flight time N/A
Altitude 40000
Route NUBLE4 BAF Q448 PTW J48 CSN FANPO Q40 NIOLA DIODE
Aircraft CL60/M-SBDE1E2E3FGHIJ1J4J5J7M3RWXYZ/LB1V1D1

Departure

Time 2026-05-07 01:49
Airport Portland International Jetport (KPWM)

Arrival

Time N/A
Airport Birmingham-Shuttlesworth International Airport (KBHM)
Time Latitude Longitude Altitude Speed Heading
2026-05-07 00:51 43.64925 -70.30839 57 ft 0 kts 359°
2026-05-07 01:36 43.64926 -70.30839 57 ft 1 kts 359°
2026-05-07 01:36 43.64955 -70.30814 56 ft 7 kts 73°
2026-05-07 01:36 43.64954 -70.30724 52 ft 6 kts 118°
2026-05-07 01:37 43.64903 -70.30711 52 ft 9 kts 181°
2026-05-07 01:37 43.64832 -70.30708 52 ft 11 kts 178°
2026-05-07 01:37 43.64748 -70.30705 51 ft 13 kts 179°
2026-05-07 01:37 43.64650 -70.30701 51 ft 11 kts 178°
2026-05-07 01:38 43.64602 -70.30699 51 ft 7 kts 180°
2026-05-07 01:38 43.64573 -70.30727 52 ft 8 kts 255°
2026-05-07 01:38 43.64578 -70.30836 57 ft 8 kts 275°
2026-05-07 01:38 43.64584 -70.30922 58 ft 11 kts 275°
2026-05-07 01:39 43.64592 -70.31040 61 ft 13 kts 276°
2026-05-07 01:39 43.64598 -70.31130 62 ft 14 kts 275°
2026-05-07 01:39 43.64610 -70.31316 66 ft 14 kts 275°
2026-05-07 01:39 43.64619 -70.31448 69 ft 14 kts 275°
2026-05-07 01:40 43.64625 -70.31546 69 ft 16 kts 276°
2026-05-07 01:40 43.64639 -70.31752 69 ft 13 kts 275°
2026-05-07 01:40 43.64648 -70.31888 68 ft 15 kts 275°
2026-05-07 01:40 43.64659 -70.32056 66 ft 19 kts 275°
2026-05-07 01:41 43.64673 -70.32243 67 ft 14 kts 276°
2026-05-07 01:41 43.64680 -70.32356 66 ft 12 kts 276°
2026-05-07 01:41 43.64689 -70.32482 66 ft 12 kts 275°
2026-05-07 01:41 43.64689 -70.32568 65 ft 9 kts 243°
2026-05-07 01:42 43.64671 -70.32584 65 ft 0 kts 189°
2026-05-07 01:47 43.64670 -70.32585 65 ft 1 kts 189°
2026-05-07 01:47 43.64605 -70.32594 63 ft 10 kts 179°
2026-05-07 01:48 43.64583 -70.32554 64 ft 0 kts 95°
2026-05-07 01:48 43.64577 -70.32467 65 ft 43 kts 96°
2026-05-07 01:48 43.64514 -70.31538 67 ft 143 kts 95°
2026-05-07 01:48 43.64417 -70.29900 437 ft 187 kts 99°
2026-05-07 01:49 43.64301 -70.28070 1325 ft 199 kts 99°
2026-05-07 01:49 43.64463 -70.26138 2302 ft 217 kts 76°
2026-05-07 01:49 43.65261 -70.24148 2872 ft 261 kts 53°
2026-05-07 01:49 43.66340 -70.22053 3988 ft 276 kts 63°
2026-05-07 01:50 43.66890 -70.19479 5119 ft 286 kts 91°
2026-05-07 01:50 43.66382 -70.15885 5918 ft 297 kts 113°
2026-05-07 01:50 43.65856 -70.14146 6749 ft 297 kts 126°
2026-05-07 01:50 43.64571 -70.12118 8312 ft 280 kts 150°
2026-05-07 01:51 43.62903 -70.10942 9619 ft 271 kts 171°
2026-05-07 01:51 43.61050 -70.10650 10567 ft 277 kts 189°
2026-05-07 01:51 43.59042 -70.10964 11186 ft 300 kts 197°
2026-05-07 01:51 43.57121 -70.12032 12161 ft 301 kts 218°
2026-05-07 01:52 43.55610 -70.13992 13160 ft 304 kts 232°
2026-05-07 01:52 43.53803 -70.16947 14609 ft 307 kts 232°
2026-05-07 01:52 43.52882 -70.18441 15293 ft 309 kts 233°
2026-05-07 01:52 43.51476 -70.20718 16343 ft 309 kts 232°
2026-05-07 01:53 43.50089 -70.22950 17217 ft 314 kts 231°
2026-05-07 01:53 43.48676 -70.25224 18123 ft 316 kts 232°
2026-05-07 01:53 43.47247 -70.27518 18954 ft 319 kts 231°
2026-05-07 01:53 43.45794 -70.29845 19723 ft 324 kts 231°
2026-05-07 01:54 43.44329 -70.32185 20514 ft 327 kts 231°
2026-05-07 01:54 43.42833 -70.34571 21251 ft 331 kts 231°
2026-05-07 01:54 43.41327 -70.36967 21938 ft 335 kts 231°
2026-05-07 01:54 43.39805 -70.39378 22636 ft 338 kts 232°
2026-05-07 01:55 43.38250 -70.41840 23377 ft 340 kts 231°
2026-05-07 01:55 43.36690 -70.44305 24085 ft 342 kts 232°
2026-05-07 01:55 43.35135 -70.46763 24765 ft 344 kts 232°
2026-05-07 01:55 43.33013 -70.50111 25713 ft 345 kts 233°
2026-05-07 01:56 43.31973 -70.51749 26132 ft 346 kts 233°
2026-05-07 01:56 43.30376 -70.54263 26759 ft 347 kts 234°
2026-05-07 01:56 43.28790 -70.56759 27329 ft 349 kts 234°
2026-05-07 01:56 43.27167 -70.59262 27925 ft 351 kts 232°
2026-05-07 01:57 43.25357 -70.61526 28550 ft 352 kts 229°
2026-05-07 01:57 43.23505 -70.63738 28987 ft 355 kts 230°
2026-05-07 01:57 43.21641 -70.65971 29324 ft 360 kts 230°
2026-05-07 01:57 43.19826 -70.68151 29679 ft 364 kts 230°
2026-05-07 01:58 43.17938 -70.70406 30196 ft 363 kts 229°
2026-05-07 01:58 43.15859 -70.72463 30649 ft 376 kts 220°
2026-05-07 01:58 43.13518 -70.74150 31124 ft 378 kts 219°
2026-05-07 01:58 43.11173 -70.75828 31473 ft 379 kts 219°
2026-05-07 01:59 43.08845 -70.77499 31715 ft 384 kts 219°
2026-05-07 01:59 43.06466 -70.79203 32025 ft 385 kts 219°
2026-05-07 01:59 43.04067 -70.80920 32311 ft 388 kts 219°
2026-05-07 01:59 43.01690 -70.82619 32632 ft 388 kts 219°
2026-05-07 02:00 42.99299 -70.84329 32815 ft 391 kts 220°
2026-05-07 02:00 42.96869 -70.86064 33086 ft 392 kts 219°
2026-05-07 02:00 42.94443 -70.87795 33267 ft 394 kts 219°
2026-05-07 02:00 42.92008 -70.89531 33497 ft 395 kts 219°
2026-05-07 02:01 42.89578 -70.91258 33862 ft 392 kts 220°
2026-05-07 02:01 42.87391 -70.92807 34145 ft 391 kts 219°
2026-05-07 02:01 42.84969 -70.94524 34474 ft 389 kts 220°
2026-05-07 02:01 42.82521 -70.96090 34740 ft 396 kts 214°
2026-05-07 02:02 42.79932 -70.97368 35037 ft 397 kts 212°
2026-05-07 02:02 42.77334 -70.98625 35256 ft 398 kts 213°
2026-05-07 02:02 42.74686 -70.99912 35380 ft 401 kts 213°
2026-05-07 02:02 42.71166 -71.01618 35653 ft 401 kts 213°
2026-05-07 02:03 42.69422 -71.02462 35789 ft 401 kts 213°
2026-05-07 02:03 42.66774 -71.03742 36122 ft 399 kts 212°
2026-05-07 02:03 42.64186 -71.04994 36317 ft 400 kts 213°
2026-05-07 02:03 42.61534 -71.06276 36573 ft 400 kts 213°
2026-05-07 02:04 42.58929 -71.07536 36722 ft 402 kts 213°
2026-05-07 02:04 42.56377 -71.08984 37021 ft 389 kts 219°
2026-05-07 02:04 42.54095 -71.10870 37236 ft 377 kts 227°
2026-05-07 02:04 42.52117 -71.13123 37375 ft 368 kts 235°
2026-05-07 02:05 42.50422 -71.15704 37501 ft 361 kts 242°
2026-05-07 02:05 42.49037 -71.18484 37613 ft 357 kts 246°
2026-05-07 02:05 42.47916 -71.21464 37828 ft 352 kts 252°
2026-05-07 02:05 42.47045 -71.24533 38123 ft 347 kts 256°
2026-05-07 02:06 42.46363 -71.27641 38332 ft 345 kts 259°
2026-05-07 02:06 42.45751 -71.30752 38474 ft 345 kts 259°
2026-05-07 02:06 42.45124 -71.33923 38560 ft 346 kts 258°
2026-05-07 02:06 42.44498 -71.37064 38716 ft 345 kts 259°
2026-05-07 02:07 42.43870 -71.40202 38875 ft 346 kts 259°
2026-05-07 02:07 42.42610 -71.46465 39141 ft 344 kts 258°
2026-05-07 02:07 42.41973 -71.49618 39242 ft 344 kts 259°
2026-05-07 02:08 42.40702 -71.55881 39356 ft 345 kts 258°
2026-05-07 02:08 42.39424 -71.62143 39481 ft 346 kts 259°
2026-05-07 02:09 42.38231 -71.67956 39560 ft 347 kts 258°
2026-05-07 02:09 42.36932 -71.74276 39661 ft 349 kts 258°
2026-05-07 02:10 42.35626 -71.80595 39781 ft 350 kts 257°
2026-05-07 02:10 42.34308 -71.86952 39801 ft 351 kts 258°
2026-05-07 02:11 42.32990 -71.93282 39810 ft 350 kts 258°
2026-05-07 02:11 42.31670 -71.99603 39804 ft 350 kts 258°
2026-05-07 02:12 42.30348 -72.05911 39806 ft 349 kts 258°
2026-05-07 02:12 42.29028 -72.12193 39789 ft 347 kts 257°
2026-05-07 02:13 42.27710 -72.18443 39825 ft 346 kts 258°
2026-05-07 02:13 42.26388 -72.24694 39806 ft 346 kts 257°
2026-05-07 02:14 42.25068 -72.30917 39813 ft 345 kts 258°
2026-05-07 02:14 42.23740 -72.37161 39808 ft 345 kts 258°
2026-05-07 02:15 42.22417 -72.43358 39818 ft 343 kts 258°
2026-05-07 02:15 42.21096 -72.49530 39830 ft 341 kts 258°
2026-05-07 02:16 42.19778 -72.55673 39838 ft 342 kts 258°
2026-05-07 02:16 42.18451 -72.61834 39818 ft 341 kts 258°
2026-05-07 02:17 42.17120 -72.67963 39844 ft 341 kts 257°
2026-05-07 02:17 42.14973 -72.73756 39831 ft 354 kts 242°
2026-05-07 02:18 42.11948 -72.79013 39805 ft 354 kts 241°
2026-05-07 02:18 42.08939 -72.84202 39809 ft 352 kts 242°
2026-05-07 02:19 42.05940 -72.89359 39823 ft 350 kts 241°
2026-05-07 02:19 42.02938 -72.94501 39816 ft 348 kts 242°
2026-05-07 02:20 41.99943 -72.99614 39838 ft 346 kts 242°
2026-05-07 02:20 41.96942 -73.04663 39837 ft 348 kts 238°
2026-05-07 02:21 41.93142 -73.08913 39847 ft 369 kts 226°
2026-05-07 02:21 41.88958 -73.12462 39840 ft 368 kts 226°
2026-05-07 02:22 41.84792 -73.15985 39835 ft 368 kts 226°
2026-05-07 02:22 41.80428 -73.19666 39838 ft 368 kts 226°
2026-05-07 02:23 41.76085 -73.23318 39838 ft 368 kts 226°
2026-05-07 02:23 41.71734 -73.26966 39846 ft 368 kts 226°
2026-05-07 02:24 41.67400 -73.30620 39836 ft 365 kts 228°
2026-05-07 02:24 41.65451 -73.32659 39828 ft 354 kts 235°
2026-05-07 02:24 41.63730 -73.34988 39830 ft 345 kts 239°
2026-05-07 02:25 41.60630 -73.39808 39837 ft 343 kts 240°
2026-05-07 02:25 41.57522 -73.44633 39835 ft 344 kts 240°
2026-05-07 02:26 41.54396 -73.49461 39837 ft 344 kts 240°
2026-05-07 02:26 41.51259 -73.54296 39835 ft 345 kts 240°
2026-05-07 02:27 41.48105 -73.59140 39838 ft 345 kts 241°
2026-05-07 02:27 41.44959 -73.63958 39843 ft 345 kts 241°
2026-05-07 02:28 41.41832 -73.68739 39845 ft 346 kts 240°
2026-05-07 02:28 41.38664 -73.73569 39849 ft 345 kts 240°
2026-05-07 02:29 41.35519 -73.78352 39848 ft 344 kts 240°
2026-05-07 02:29 41.32321 -73.83137 39849 ft 344 kts 239°
2026-05-07 02:30 41.29124 -73.87859 39849 ft 345 kts 239°
2026-05-07 02:30 41.25917 -73.92587 39844 ft 345 kts 240°
2026-05-07 02:31 41.22715 -73.97301 39861 ft 345 kts 239°
2026-05-07 02:31 41.19495 -74.02034 39850 ft 346 kts 240°
2026-05-07 02:32 41.16269 -74.06768 39848 ft 345 kts 240°
2026-05-07 02:32 41.13079 -74.11524 39852 ft 343 kts 241°
2026-05-07 02:33 41.10075 -74.16380 39863 ft 341 kts 242°
2026-05-07 02:33 41.07071 -74.21281 39865 ft 341 kts 242°
2026-05-07 02:34 41.04093 -74.26123 39863 ft 341 kts 242°
2026-05-07 02:34 41.01083 -74.31003 39867 ft 341 kts 242°
2026-05-07 02:35 40.98079 -74.35859 39867 ft 340 kts 242°
2026-05-07 02:35 40.95078 -74.40701 39864 ft 340 kts 242°
2026-05-07 02:36 40.92079 -74.45529 39866 ft 340 kts 242°
2026-05-07 02:36 40.89237 -74.50096 39868 ft 340 kts 243°
2026-05-07 02:37 40.86689 -74.54439 39827 ft 340 kts 243°
2026-05-07 02:37 40.83717 -74.59125 39870 ft 339 kts 242°
2026-05-07 02:38 40.80671 -74.63950 39875 ft 340 kts 243°
2026-05-07 02:38 40.77803 -74.68498 39874 ft 340 kts 242°
2026-05-07 02:39 40.74761 -74.73319 39877 ft 340 kts 243°
2026-05-07 02:39 40.71748 -74.78091 39878 ft 339 kts 242°
2026-05-07 02:40 40.68725 -74.82876 39888 ft 339 kts 243°
2026-05-07 02:40 40.65696 -74.87669 39888 ft 339 kts 243°
2026-05-07 02:41 40.62691 -74.92419 39889 ft 339 kts 242°
2026-05-07 02:41 40.59648 -74.97222 39887 ft 338 kts 242°
2026-05-07 02:42 40.56640 -75.01963 39899 ft 337 kts 242°
2026-05-07 02:42 40.53642 -75.06718 39901 ft 336 kts 244°
2026-05-07 02:43 40.50653 -75.11464 39908 ft 337 kts 242°
2026-05-07 02:43 40.47640 -75.16241 39909 ft 338 kts 243°
2026-05-07 02:44 40.44640 -75.20990 39904 ft 337 kts 243°
2026-05-07 02:44 40.41634 -75.25739 39904 ft 337 kts 244°
2026-05-07 02:45 40.38641 -75.30462 39915 ft 337 kts 243°
2026-05-07 02:45 40.35635 -75.35198 39912 ft 336 kts 243°
2026-05-07 02:46 40.32657 -75.39881 39916 ft 335 kts 243°
2026-05-07 02:46 40.29658 -75.44591 39910 ft 334 kts 243°
2026-05-07 02:47 40.26667 -75.49281 39913 ft 334 kts 243°
2026-05-07 02:47 40.23677 -75.53966 39907 ft 335 kts 244°
2026-05-07 02:48 40.20882 -75.58737 39902 ft 326 kts 249°
2026-05-07 02:48 40.18411 -75.63715 39904 ft 324 kts 248°
2026-05-07 02:49 40.15975 -75.68606 39909 ft 324 kts 248°
2026-05-07 02:49 40.13510 -75.73531 39902 ft 322 kts 249°
2026-05-07 02:50 40.11053 -75.78422 39910 ft 321 kts 249°
2026-05-07 02:50 40.08601 -75.83296 39908 ft 322 kts 249°
2026-05-07 02:51 40.06142 -75.88165 39906 ft 322 kts 248°
2026-05-07 02:51 40.03680 -75.93028 39908 ft 321 kts 248°
2026-05-07 02:52 40.01221 -75.97875 39905 ft 320 kts 249°
2026-05-07 02:52 39.98768 -76.02707 39909 ft 319 kts 249°
2026-05-07 02:53 39.96307 -76.07542 39908 ft 320 kts 249°
2026-05-07 02:53 39.93853 -76.12355 39916 ft 320 kts 249°
2026-05-07 02:54 39.91376 -76.17206 39916 ft 320 kts 249°
2026-05-07 02:54 39.88996 -76.21860 39928 ft 319 kts 248°
2026-05-07 02:55 39.86525 -76.26686 39928 ft 319 kts 249°
2026-05-07 02:55 39.84068 -76.31474 39927 ft 319 kts 249°
2026-05-07 02:56 39.81596 -76.36286 39925 ft 320 kts 249°
2026-05-07 02:56 39.79120 -76.41096 39925 ft 320 kts 249°
2026-05-07 02:57 39.76637 -76.45913 39931 ft 319 kts 248°
2026-05-07 02:57 39.74161 -76.50709 39924 ft 318 kts 248°
2026-05-07 02:58 39.71695 -76.55479 39925 ft 319 kts 247°
2026-05-07 02:58 39.69220 -76.60260 39926 ft 319 kts 248°
2026-05-07 02:59 39.66750 -76.65021 39927 ft 319 kts 247°
2026-05-07 02:59 39.64239 -76.69858 39930 ft 321 kts 247°
2026-05-07 03:00 39.61747 -76.74648 39929 ft 321 kts 247°
2026-05-07 03:00 39.59252 -76.79436 39930 ft 319 kts 246°
2026-05-07 03:01 39.56768 -76.84196 39932 ft 318 kts 248°
2026-05-07 03:01 39.54299 -76.88923 39932 ft 319 kts 246°
2026-05-07 03:02 39.51805 -76.93686 39935 ft 318 kts 246°
2026-05-07 03:02 39.49089 -76.98254 39939 ft 333 kts 238°
2026-05-07 03:03 39.45461 -77.02188 39931 ft 340 kts 234°
2026-05-07 03:03 39.41816 -77.06046 39932 ft 339 kts 234°
2026-05-07 03:04 39.38154 -77.09915 39933 ft 339 kts 233°
2026-05-07 03:04 39.34499 -77.13765 39931 ft 340 kts 234°
2026-05-07 03:05 39.30824 -77.17629 39936 ft 340 kts 234°
2026-05-07 03:05 39.27136 -77.21499 39935 ft 341 kts 234°
2026-05-07 03:06 39.23459 -77.25349 39934 ft 341 kts 234°
2026-05-07 03:06 39.19738 -77.29238 39932 ft 341 kts 233°
2026-05-07 03:07 39.16027 -77.33113 39932 ft 341 kts 233°
2026-05-07 03:07 39.12328 -77.36968 39928 ft 342 kts 233°
2026-05-07 03:08 39.08611 -77.40836 39931 ft 343 kts 233°
2026-05-07 03:08 39.04878 -77.44714 39936 ft 343 kts 233°
2026-05-07 03:09 39.01152 -77.48579 39929 ft 343 kts 233°
2026-05-07 03:09 38.97429 -77.52437 39932 ft 344 kts 233°
2026-05-07 03:10 38.93686 -77.56309 39928 ft 344 kts 233°
2026-05-07 03:10 38.89936 -77.60182 39930 ft 344 kts 233°
2026-05-07 03:11 38.86478 -77.63749 39926 ft 345 kts 234°
2026-05-07 03:11 38.82715 -77.67628 39927 ft 348 kts 234°
2026-05-07 03:12 38.78907 -77.71549 39919 ft 348 kts 233°
2026-05-07 03:12 38.75194 -77.75362 39921 ft 347 kts 232°
2026-05-07 03:13 38.71404 -77.79249 39918 ft 346 kts 232°
2026-05-07 03:13 38.67629 -77.83115 39913 ft 346 kts 233°
2026-05-07 03:14 38.63975 -77.87080 39913 ft 335 kts 240°
2026-05-07 03:15 38.59726 -77.94035 39918 ft 328 kts 244°
2026-05-07 03:15 38.56972 -77.98708 39916 ft 329 kts 243°
2026-05-07 03:16 38.54198 -78.03401 39916 ft 329 kts 243°
2026-05-07 03:16 38.51435 -78.08060 39910 ft 330 kts 244°
2026-05-07 03:17 38.48639 -78.12765 39916 ft 330 kts 243°
2026-05-07 03:17 38.45862 -78.17426 39907 ft 330 kts 244°
2026-05-07 03:18 38.43082 -78.22082 39906 ft 329 kts 243°
2026-05-07 03:18 38.40543 -78.26894 39908 ft 323 kts 248°
2026-05-07 03:19 38.38197 -78.31767 39911 ft 323 kts 249°
2026-05-07 03:19 38.35825 -78.36672 39907 ft 323 kts 248°
2026-05-07 03:20 38.33454 -78.41555 39913 ft 323 kts 248°
2026-05-07 03:20 38.31095 -78.46399 39914 ft 322 kts 249°
2026-05-07 03:21 38.28728 -78.51252 39912 ft 322 kts 247°
2026-05-07 03:21 38.26340 -78.56133 39918 ft 323 kts 247°
2026-05-07 03:22 38.23964 -78.60978 39920 ft 323 kts 248°
2026-05-07 03:22 38.21562 -78.65872 39920 ft 326 kts 248°
2026-05-07 03:23 38.19144 -78.70788 39925 ft 327 kts 248°
2026-05-07 03:23 38.16735 -78.75674 39932 ft 326 kts 248°
2026-05-07 03:24 38.14316 -78.80575 39932 ft 327 kts 246°
2026-05-07 03:24 38.11900 -78.85460 39926 ft 326 kts 246°
2026-05-07 03:25 38.09468 -78.90369 39932 ft 325 kts 246°
2026-05-07 03:25 38.07059 -78.95225 39930 ft 326 kts 246°
2026-05-07 03:26 38.04631 -79.00114 39924 ft 326 kts 246°
2026-05-07 03:26 38.02202 -79.04995 39931 ft 326 kts 246°
2026-05-07 03:27 37.99780 -79.09855 39930 ft 327 kts 248°
2026-05-07 03:27 37.97342 -79.14739 39928 ft 327 kts 247°
2026-05-07 03:28 37.94910 -79.19604 39920 ft 327 kts 246°
2026-05-07 03:28 37.92482 -79.24457 39924 ft 327 kts 247°
2026-05-07 03:29 37.90029 -79.29348 39920 ft 327 kts 247°
2026-05-07 03:29 37.87570 -79.34242 39920 ft 327 kts 246°
2026-05-07 03:30 37.85120 -79.39094 39930 ft 326 kts 246°
2026-05-07 03:30 37.82648 -79.43981 39936 ft 326 kts 247°
2026-05-07 03:31 37.80214 -79.48789 39935 ft 326 kts 246°
2026-05-07 03:31 37.77744 -79.53661 39932 ft 326 kts 246°
2026-05-07 03:32 37.75292 -79.58490 39935 ft 326 kts 246°
2026-05-07 03:32 37.72847 -79.63298 39934 ft 327 kts 247°
2026-05-07 03:33 37.70371 -79.68160 39932 ft 329 kts 245°
2026-05-07 03:33 37.67897 -79.73010 39947 ft 329 kts 246°
2026-05-07 03:34 37.65411 -79.77877 39945 ft 328 kts 245°
2026-05-07 03:34 37.62940 -79.82706 39962 ft 327 kts 246°
2026-05-07 03:35 37.60454 -79.87559 39951 ft 327 kts 245°
2026-05-07 03:35 37.57982 -79.92374 39953 ft 327 kts 245°
2026-05-07 03:36 37.55511 -79.97185 39964 ft 327 kts 246°
2026-05-07 03:36 37.53028 -80.02009 39967 ft 327 kts 245°
2026-05-07 03:37 37.50563 -80.06791 39964 ft 326 kts 245°
2026-05-07 03:37 37.48078 -80.11604 39963 ft 326 kts 245°
2026-05-07 03:38 37.45610 -80.16379 39954 ft 326 kts 245°
2026-05-07 03:38 37.43135 -80.21159 39958 ft 326 kts 244°
2026-05-07 03:39 37.40651 -80.25951 39960 ft 326 kts 245°
2026-05-07 03:39 37.38189 -80.30694 39971 ft 326 kts 245°
2026-05-07 03:40 37.35693 -80.35494 39978 ft 326 kts 245°
2026-05-07 03:40 37.33217 -80.40250 39975 ft 326 kts 244°
2026-05-07 03:41 37.30725 -80.45028 40004 ft 325 kts 245°
2026-05-07 03:41 37.28251 -80.49767 40002 ft 325 kts 244°
2026-05-07 03:42 37.25838 -80.54578 39991 ft 323 kts 247°
2026-05-07 03:42 37.23526 -80.59425 39995 ft 324 kts 246°
2026-05-07 03:43 37.21219 -80.64247 39991 ft 324 kts 247°
2026-05-07 03:43 37.18874 -80.69138 39996 ft 324 kts 246°
2026-05-07 03:44 37.16542 -80.73991 39992 ft 325 kts 247°
2026-05-07 03:44 37.14210 -80.78831 39982 ft 324 kts 246°
2026-05-07 03:45 37.11890 -80.83637 39976 ft 323 kts 245°
2026-05-07 03:45 37.09545 -80.88490 39978 ft 324 kts 245°
2026-05-07 03:46 37.07205 -80.93321 39974 ft 324 kts 245°
2026-05-07 03:46 37.04876 -80.98125 39982 ft 325 kts 245°
2026-05-07 03:47 37.02521 -81.02971 39968 ft 325 kts 246°
2026-05-07 03:47 37.00165 -81.07809 39977 ft 324 kts 246°
2026-05-07 03:48 36.97723 -81.12540 39989 ft 329 kts 239°
2026-05-07 03:48 36.95886 -81.14401 40002 ft 356 kts 221°
2026-05-07 03:48 36.93399 -81.15345 40011 ft 394 kts 203°
2026-05-07 03:48 36.90515 -81.15160 40013 ft 437 kts 185°
2026-05-07 03:49 36.87614 -81.13799 40014 ft 478 kts 167°
2026-05-07 03:49 36.84857 -81.11236 40004 ft 517 kts 149°
2026-05-07 03:49 36.82581 -81.07596 40014 ft 547 kts 131°
2026-05-07 03:49 36.81033 -81.03101 40007 ft 570 kts 112°
2026-05-07 03:50 36.80416 -80.98206 40019 ft 582 kts 94°
2026-05-07 03:50 36.80766 -80.93188 40011 ft 586 kts 77°
2026-05-07 03:50 36.81843 -80.88303 39976 ft 585 kts 71°
2026-05-07 03:51 36.84151 -80.78587 39978 ft 585 kts 72°
2026-05-07 03:51 36.86427 -80.68882 39977 ft 583 kts 72°
2026-05-07 03:52 36.88736 -80.59178 39957 ft 583 kts 71°
2026-05-07 03:52 36.91007 -80.49472 39960 ft 582 kts 72°
2026-05-07 03:53 36.93313 -80.39780 39964 ft 583 kts 71°
2026-05-07 03:53 36.95665 -80.29996 39949 ft 582 kts 72°
2026-05-07 03:54 36.97939 -80.20390 39942 ft 582 kts 71°
2026-05-07 03:54 37.00258 -80.10626 39937 ft 582 kts 72°
2026-05-07 03:55 37.02532 -80.00904 39931 ft 582 kts 71°
2026-05-07 03:55 37.04842 -79.91214 39933 ft 581 kts 71°
2026-05-07 03:56 37.07146 -79.81551 39935 ft 581 kts 71°
2026-05-07 03:56 37.09412 -79.71777 39923 ft 581 kts 72°
2026-05-07 03:57 37.11723 -79.62117 39924 ft 582 kts 70°
2026-05-07 03:57 37.14054 -79.52303 39920 ft 583 kts 71°
2026-05-07 03:58 37.16227 -79.42898 39923 ft 582 kts 70°
2026-05-07 03:58 37.18479 -79.33126 39913 ft 581 kts 71°
2026-05-07 03:59 37.20306 -79.23218 39918 ft 582 kts 77°
2026-05-07 03:59 37.21916 -79.13295 39924 ft 583 kts 76°
2026-05-07 04:00 37.23529 -79.03348 39914 ft 583 kts 76°
2026-05-07 04:00 37.25147 -78.93343 39904 ft 583 kts 76°
2026-05-07 04:00 37.25954 -78.88331 39778 ft 585 kts 76°
2026-05-07 04:01 37.26759 -78.83330 39296 ft 589 kts 77°
2026-05-07 04:01 37.27558 -78.78356 38873 ft 587 kts 77°
2026-05-07 04:01 37.28365 -78.73313 38425 ft 586 kts 77°
2026-05-07 04:01 37.29168 -78.68283 37984 ft 585 kts 77°
2026-05-07 04:02 37.29958 -78.63322 37553 ft 583 kts 77°
2026-05-07 04:02 37.30757 -78.58288 37106 ft 583 kts 76°
2026-05-07 04:02 37.31538 -78.53361 36669 ft 582 kts 77°
2026-05-07 04:02 37.32329 -78.48354 36220 ft 581 kts 77°
2026-05-07 04:03 37.33236 -78.43406 35768 ft 579 kts 71°
2026-05-07 04:03 37.34479 -78.38639 35058 ft 577 kts 64°
2026-05-07 04:03 37.36010 -78.33939 34294 ft 575 kts 64°
2026-05-07 04:03 37.37524 -78.29338 33397 ft 576 kts 65°
2026-05-07 04:04 37.39060 -78.24654 32540 ft 575 kts 65°
2026-05-07 04:04 37.40551 -78.20104 31504 ft 567 kts 65°
2026-05-07 04:04 37.42054 -78.15517 30383 ft 560 kts 66°
2026-05-07 04:04 37.43471 -78.10999 29255 ft 555 kts 70°
2026-05-07 04:05 37.44642 -78.06458 29034 ft 525 kts 78°
2026-05-07 04:05 37.45291 -78.03138 29193 ft 516 kts 76°
2026-05-07 04:05 37.45596 -78.01692 28957 ft 522 kts 75°
2026-05-07 04:06 37.46593 -77.97246 28407 ft 529 kts 74°
2026-05-07 04:06 37.47919 -77.92983 27854 ft 515 kts 58°
2026-05-07 04:06 37.49931 -77.89449 27058 ft 493 kts 40°
2026-05-07 04:06 37.52531 -77.86821 26114 ft 468 kts 21°
2026-05-07 04:07 37.55446 -77.85368 25324 ft 433 kts
2026-05-07 04:07 37.58325 -77.85132 24501 ft 397 kts 343°
2026-05-07 04:07 37.60880 -77.86017 23551 ft 369 kts 325°
2026-05-07 04:07 37.62996 -77.87650 22625 ft 351 kts 310°
2026-05-07 04:08 37.64420 -77.89999 21899 ft 330 kts 289°
2026-05-07 04:08 37.64930 -77.92703 21172 ft 319 kts 269°
2026-05-07 04:08 37.64465 -77.95399 20576 ft 314 kts 248°
2026-05-07 04:08 37.63118 -77.97590 19927 ft 322 kts 226°
2026-05-07 04:09 37.61098 -77.98904 19266 ft 338 kts 205°
2026-05-07 04:09 37.58702 -77.99113 18605 ft 359 kts 184°
2026-05-07 04:09 37.56263 -77.98116 17938 ft 382 kts 162°
2026-05-07 04:09 37.54119 -77.96088 17253 ft 400 kts 143°
2026-05-07 04:10 37.52499 -77.93171 16684 ft 410 kts 121°
2026-05-07 04:10 37.51765 -77.89708 16139 ft 414 kts 96°
2026-05-07 04:10 37.52055 -77.86111 15541 ft 411 kts 76°
2026-05-07 04:10 37.52779 -77.82649 14978 ft 407 kts 75°
2026-05-07 04:11 37.53754 -77.79394 14489 ft 395 kts 58°
2026-05-07 04:11 37.55446 -77.76765 13836 ft 379 kts 36°
2026-05-07 04:11 37.57633 -77.75162 13149 ft 360 kts 13°
2026-05-07 04:11 37.60038 -77.74714 12434 ft 340 kts 350°
2026-05-07 04:12 37.62255 -77.75445 11618 ft 321 kts 326°
2026-05-07 04:12 37.63861 -77.77171 11144 ft 292 kts 299°
2026-05-07 04:12 37.64552 -77.79413 10989 ft 262 kts 274°
2026-05-07 04:12 37.64291 -77.81599 10638 ft 251 kts 246°
2026-05-07 04:13 37.63177 -77.83251 10185 ft 253 kts 218°
2026-05-07 04:13 37.61495 -77.83935 9682 ft 264 kts 188°
2026-05-07 04:13 37.59660 -77.83416 9143 ft 279 kts 159°
2026-05-07 04:13 37.58203 -77.81775 8663 ft 290 kts 129°
2026-05-07 04:14 37.57473 -77.79385 8138 ft 297 kts 103°
2026-05-07 04:14 37.57187 -77.76815 7701 ft 296 kts 100°
2026-05-07 04:14 37.56931 -77.74242 7308 ft 294 kts 100°
2026-05-07 04:14 37.56673 -77.71705 6939 ft 291 kts 100°
2026-05-07 04:15 37.56415 -77.69167 6567 ft 290 kts 101°
2026-05-07 04:15 37.56242 -77.66633 6190 ft 292 kts 88°
2026-05-07 04:15 37.56663 -77.64110 5791 ft 292 kts 75°
2026-05-07 04:15 37.57187 -77.61646 5406 ft 289 kts 76°
2026-05-07 04:16 37.57705 -77.59185 5031 ft 287 kts 75°
2026-05-07 04:16 37.58214 -77.56758 4666 ft 283 kts 77°
2026-05-07 04:16 37.58714 -77.54369 4307 ft 281 kts 76°
2026-05-07 04:16 37.59205 -77.52013 3980 ft 278 kts 76°
2026-05-07 04:17 37.59693 -77.49657 3650 ft 273 kts 76°
2026-05-07 04:17 37.60168 -77.47366 3307 ft 268 kts 76°
2026-05-07 04:17 37.60638 -77.45095 2948 ft 262 kts 75°
2026-05-07 04:17 37.61081 -77.42964 2839 ft 239 kts 75°
2026-05-07 04:18 37.61480 -77.41054 2852 ft 212 kts 75°
2026-05-07 04:18 37.61883 -77.39291 2742 ft 210 kts 67°
2026-05-07 04:18 37.62739 -77.37868 2370 ft 202 kts 31°
2026-05-07 04:18 37.64014 -77.37460 2062 ft 183 kts 349°
2026-05-07 04:19 37.65023 -77.38257 2016 ft 175 kts 303°
2026-05-07 04:19 37.65239 -77.39747 2019 ft 177 kts 260°
2026-05-07 04:19 37.64532 -77.40953 2034 ft 174 kts 214°
2026-05-07 04:19 37.63359 -77.41357 2037 ft 176 kts 186°
2026-05-07 04:20 37.62143 -77.41061 2016 ft 178 kts 156°
2026-05-07 04:20 37.61108 -77.40228 1987 ft 175 kts 143°
2026-05-07 04:20 37.60209 -77.39341 2036 ft 152 kts 143°
2026-05-07 04:21 37.58499 -77.37856 1727 ft 145 kts 147°
2026-05-07 04:21 37.57641 -77.37159 1560 ft 142 kts 146°
2026-05-07 04:21 37.56810 -77.36485 1368 ft 143 kts 148°
2026-05-07 04:21 37.55987 -77.35806 1157 ft 137 kts 149°
2026-05-07 04:22 37.55185 -77.35164 979 ft 133 kts 152°
2026-05-07 04:22 37.54414 -77.34541 805 ft 129 kts 153°
2026-05-07 04:22 37.53655 -77.33940 633 ft 127 kts 153°
2026-05-07 04:22 37.52913 -77.33345 485 ft 126 kts 152°
2026-05-07 04:23 37.52169 -77.32761 324 ft 123 kts 153°
2026-05-07 04:23 37.51452 -77.32185 178 ft 118 kts 152°
2026-05-07 04:23 37.50826 -77.31698 162 ft 90 kts 149°
2026-05-07 04:23 37.50485 -77.31419 162 ft 34 kts 146°
2026-05-07 04:24 37.50364 -77.31321 162 ft 17 kts 147°
2026-05-07 04:24 37.50337 -77.31300 162 ft 6 kts 150°
2026-05-07 04:24 37.50274 -77.31324 162 ft 12 kts 237°
2026-05-07 04:24 37.50221 -77.31432 162 ft 14 kts 238°
2026-05-07 04:25 37.50234 -77.31519 162 ft 15 kts 326°
2026-05-07 04:25 37.50354 -77.31614 162 ft 23 kts 328°
2026-05-07 04:25 37.50503 -77.31734 162 ft 26 kts 328°
2026-05-07 04:25 37.50671 -77.31868 162 ft 29 kts 328°
2026-05-07 04:26 37.50829 -77.31995 162 ft 20 kts 327°
2026-05-07 04:26 37.50933 -77.32095 164 ft 17 kts 291°
2026-05-07 04:26 37.50955 -77.32254 165 ft 20 kts 277°
2026-05-07 04:26 37.50974 -77.32444 165 ft 23 kts 277°
2026-05-07 04:27 37.50993 -77.32649 165 ft 24 kts 271°
2026-05-07 04:27 37.51008 -77.32763 165 ft 11 kts 341°
2026-05-07 04:27 37.51116 -77.32740 165 ft 18 kts 13°
2026-05-07 04:27 37.51257 -77.32697 165 ft 22 kts 14°
2026-05-07 04:28 37.51406 -77.32653 165 ft 20 kts 13°
2026-05-07 04:28 37.51555 -77.32608 165 ft 23 kts 14°
2026-05-07 04:28 37.51638 -77.32636 165 ft 14 kts 272°
2026-05-07 04:28 37.51637 -77.32778 165 ft 15 kts 271°
2026-05-07 04:29 37.51646 -77.32857 165 ft 6 kts 318°
2026-05-07 04:29 37.51701 -77.32891 165 ft 10 kts 306°
2026-05-07 04:29 37.51702 -77.32977 165 ft 8 kts 333°
2026-05-07 04:29 37.51736 -77.32939 165 ft 0 kts 68°